This demonstration page uses our WeatherBlox Daily Observations layout. Learn more.

Left ArrowRight Arrow

44.8408, -93.29828

Hourly Observations for July 13, 2019

Temp ( °F °C ) Dew Point ( °F °C ) Humidity (%) Winds ( mph kmh ) Pressure ( in mb ) Visibility ( mi km ) Precip ( " mm )
12:51 am 00:51 Clear 75 24 64 18 69 69 NNW 6 9 29.88 1012 10 16 0.00 0.00
1:49 am 01:49 Clear 75 24 63 17 65 65 N 7 11 29.90 1012 10 16 0.00 0.00
2:48 am 02:48 Mostly Clear 73 23 63 17 69 69 NNE 6 9 29.92 1013 10 16 0.00 0.00
3:53 am 03:53 Partly Cloudy 71 21.7 62 16.7 73 73 NNE 7 11 29.93 1014 10 16 0.00 0.00
4:53 am 04:53 Mostly Cloudy 72 22.2 62 16.7 71 71 NNE 3 6 29.95 1014 10 16 0.00 0.00
5:53 am 05:53 Mostly Cloudy 70 21.1 61 16.1 73 73 Calm 29.96 1014 10 16 0.00 0.00
6:53 am 06:53 Mostly Cloudy 73 22.8 61 16.1 66 66 Calm 29.97 1015 10 16 0.00 0.00
7:53 am 07:53 Mostly Cloudy 75 23.9 60 15.6 60 60 Calm 30.00 1016 10 16 0.00 0.00
8:53 am 08:53 Mostly Cloudy 75 23.9 62 16.7 64 64 Calm 30.03 1017 10 16 0.00 0.00
9:53 am 09:53 Mostly Cloudy 78 25.6 61 16.1 56 56 E 3 6 30.03 1017 10 16 0.00 0.00
10:53 am 10:53 Cloudy 78 25.6 59 15 52 52 S 6 9 30.05 1018 10 16 0.00 0.00
11:53 am 11:53 Mostly Cloudy 80 26.7 61 16.1 52 52 ESE 8 13 30.03 1017 10 16 0.00 0.00
12:53 pm 12:53 Mostly Cloudy 82 27.8 61 16.1 49 49 VRB 7 11 30.01 1016 10 16 0.00 0.00
1:53 pm 13:53 Mostly Cloudy 84 28.9 61 16.1 46 46 E 10 17 29.98 1015 10 16 0.00 0.00
2:53 pm 14:53 Mostly Cloudy 85 29.4 60 15.6 43 43 ENE 3 6 29.99 1016 10 16 0.00 0.00
3:53 pm 15:53 Mostly Cloudy 84 28.9 62 16.7 48 48 S 9 15 30.01 1016 10 16 0.00 0.00
4:53 pm 16:53 Mostly Cloudy 84 28.9 62 16.7 48 48 S 7 11 30.01 1016 10 16 0.00 0.00
5:53 pm 17:53 Partly Cloudy 84 28.9 63 17.2 49 49 SSE 8 13 30.00 1016 10 16 0.00 0.00
6:53 pm 18:53 Mostly Cloudy 83 28.3 63 17.2 51 51 SE 7 11 30.01 1016 10 16 0.00 0.00
7:53 pm 19:53 Mostly Cloudy 82 27.8 63 17.2 53 53 SSE 6 9 30.02 1017 10 16 0.00 0.00
8:53 pm 20:53 Mostly Cloudy 80 26.7 64 17.8 58 58 SE 7 11 30.01 1016 10 16 0.00 0.00
9:53 pm 21:53 Mostly Cloudy 79 26.1 64 17.8 60 60 SE 6 9 30.02 1017 10 16 0.00 0.00
10:53 pm 22:53 Mostly Cloudy 77 25 65 18.3 66 66 E 7 11 30.01 1016 10 16 0.00 0.00
11:53 pm 23:53 Mostly Cloudy 76 24.4 65 18.3 69 69 SE 6 9 30.02 1017 10 16 0.00 0.00

Powered by AerisWeather